Time,TemperatureF,DewpointF,PressureIn,WindDirection,WindDirectionDegrees,WindSpeedMPH,WindSpeedGustMPH,Humidity,HourlyPrecipIn,Conditions,Clouds,dailyrainin,SoftwareType,DateUTC
2013-03-11 00:01:00,38.7,37.4,-100.00,WSW,250,1.0,23.0,95,0.00,,,0.00,meteohub,2013-03-11 05:01:00,
2013-03-11 00:06:00,38.7,37.4,-100.00,SW,236,9.0,20.0,95,0.00,,,0.00,meteohub,2013-03-11 05:06:00,
2013-03-11 00:11:00,38.5,37.2,-100.00,SW,234,15.0,17.0,95,0.00,,,0.00,meteohub,2013-03-11 05:11:00,
2013-03-11 00:16:00,38.5,37.2,-100.00,SW,235,4.0,17.0,95,0.00,,,0.00,meteohub,2013-03-11 05:16:00,
2013-03-11 00:21:00,38.1,36.9,-100.00,SW,225,10.0,17.0,95,0.00,,,0.00,meteohub,2013-03-11 05:21:00,
2013-03-11 00:26:00,37.9,36.7,-100.00,WSW,243,9.0,18.0,95,0.00,,,0.00,meteohub,2013-03-11 05:26:00,
2013-03-11 00:31:00,37.8,36.5,-100.00,West,279,7.0,18.0,95,0.00,,,0.00,meteohub,2013-03-11 05:31:00,
2013-03-11 00:36:00,37.4,35.8,-100.00,WNW,290,15.0,18.0,94,0.00,,,0.00,meteohub,2013-03-11 05:36:00,
2013-03-11 00:41:00,37.0,35.8,-100.00,West,264,1.0,18.0,95,0.00,,,0.00,meteohub,2013-03-11 05:41:00,
2013-03-11 00:46:00,37.0,35.8,-100.00,SW,233,4.0,25.0,95,0.00,,,0.00,meteohub,2013-03-11 05:46:00,
2013-03-11 00:52:00,36.9,35.2,-100.00,West,260,6.0,25.0,94,0.00,,,0.00,meteohub,2013-03-11 05:52:00,
2013-03-11 00:57:00,36.9,35.2,-100.00,WNW,288,1.0,25.0,94,0.00,,,0.00,meteohub,2013-03-11 05:57:00,
2013-03-11 01:02:00,36.9,35.2,-100.00,SW,234,2.0,19.0,94,0.00,,,0.00,meteohub,2013-03-11 06:02:00,
2013-03-11 01:07:00,36.9,35.2,-100.00,WSW,240,6.0,13.0,94,0.00,,,0.00,meteohub,2013-03-11 06:07:00,
2013-03-11 01:12:00,36.7,35.1,-100.00,SW,217,4.0,20.0,94,0.00,,,0.00,meteohub,2013-03-11 06:12:00,
2013-03-11 01:17:00,36.3,34.7,-100.00,SW,234,9.0,23.0,94,0.00,,,0.00,meteohub,2013-03-11 06:17:00,
2013-03-11 01:22:00,36.1,34.5,-100.00,SW,232,10.0,23.0,94,0.00,,,0.00,meteohub,2013-03-11 06:22:00,
2013-03-11 01:27:00,36.1,34.5,-100.00,WSW,252,7.0,23.0,94,0.00,,,0.00,meteohub,2013-03-11 06:27:00,
2013-03-11 01:32:00,36.0,34.3,-100.00,WSW,246,14.0,21.0,94,0.00,,,0.00,meteohub,2013-03-11 06:32:00,
2013-03-11 01:37:00,36.0,34.3,-100.00,WSW,239,10.0,21.0,94,0.00,,,0.00,meteohub,2013-03-11 06:37:00,
2013-03-11 01:42:00,36.0,34.3,-100.00,SW,233,16.0,21.0,94,0.00,,,0.00,meteohub,2013-03-11 06:42:00,
2013-03-11 01:47:00,36.0,34.3,-100.00,SW,214,2.0,26.0,94,0.00,,,0.00,meteohub,2013-03-11 06:47:00,
2013-03-11 01:52:00,36.0,34.3,-100.00,West,263,19.0,26.0,94,0.00,,,0.00,meteohub,2013-03-11 06:52:00,
2013-03-11 01:57:00,36.0,34.3,-100.00,NW,311,15.0,26.0,94,0.00,,,0.00,meteohub,2013-03-11 06:57:00,
2013-03-11 02:02:00,36.0,34.3,-100.00,WSW,248,3.0,19.0,94,0.00,,,0.00,meteohub,2013-03-11 07:02:00,
2013-03-11 02:07:00,36.0,34.3,-100.00,West,270,14.0,19.0,94,0.00,,,0.00,meteohub,2013-03-11 07:07:00,
2013-03-11 02:12:00,35.8,34.2,-100.00,WSW,241,17.0,20.0,94,0.00,,,0.00,meteohub,2013-03-11 07:12:00,
2013-03-11 02:17:00,35.8,34.2,-100.00,WNW,284,6.0,20.0,94,0.00,,,0.00,meteohub,2013-03-11 07:17:00,
2013-03-11 02:22:00,35.6,34.0,-100.00,SSW,208,10.0,20.0,94,0.00,,,0.00,meteohub,2013-03-11 07:22:00,
2013-03-11 02:27:00,35.4,33.8,-100.00,SW,226,10.0,18.0,94,0.00,,,0.00,meteohub,2013-03-11 07:27:00,
2013-03-11 02:32:00,35.2,33.4,-100.00,WSW,237,16.0,18.0,93,0.00,,,0.00,meteohub,2013-03-11 07:32:00,
2013-03-11 02:37:00,34.9,33.1,-100.00,WSW,251,12.0,21.0,93,0.00,,,0.00,meteohub,2013-03-11 07:37:00,
2013-03-11 02:42:00,34.9,33.1,-100.00,SW,236,9.0,21.0,93,0.00,,,0.00,meteohub,2013-03-11 07:42:00,
2013-03-11 02:47:00,34.7,33.1,-100.00,WSW,237,3.0,21.0,94,0.00,,,0.00,meteohub,2013-03-11 07:47:00,
2013-03-11 02:52:00,34.5,32.7,-100.00,SW,227,3.0,20.0,93,0.00,,,0.00,meteohub,2013-03-11 07:52:00,
2013-03-11 02:57:00,34.5,32.7,-100.00,SW,228,2.0,17.0,93,0.00,,,0.00,meteohub,2013-03-11 07:57:00,
2013-03-11 03:02:00,34.3,32.7,-100.00,West,264,5.0,15.0,94,0.00,,,0.00,meteohub,2013-03-11 08:02:00,
2013-03-11 03:07:00,34.3,32.7,-100.00,SW,234,13.0,16.0,94,0.00,,,0.00,meteohub,2013-03-11 08:07:00,
2013-03-11 03:12:00,34.3,32.7,-100.00,SW,225,4.0,16.0,94,0.00,,,0.00,meteohub,2013-03-11 08:12:00,
2013-03-11 03:17:00,34.3,32.7,-100.00,SW,229,10.0,16.0,94,0.00,,,0.00,meteohub,2013-03-11 08:17:00,
2013-03-11 03:22:00,34.3,32.7,-100.00,SW,215,4.0,16.0,94,0.00,,,0.00,meteohub,2013-03-11 08:22:00,
2013-03-11 03:27:00,34.2,32.5,-100.00,WSW,241,6.0,16.0,94,0.00,,,0.00,meteohub,2013-03-11 08:27:00,
2013-03-11 03:32:00,34.2,32.4,-100.00,WNW,283,2.0,16.0,93,0.00,,,0.00,meteohub,2013-03-11 08:32:00,
2013-03-11 03:37:00,34.2,32.4,-100.00,SW,230,2.0,16.0,93,0.00,,,0.00,meteohub,2013-03-11 08:37:00,
2013-03-11 03:42:00,34.0,32.2,-100.00,SW,221,4.0,17.0,93,0.00,,,0.00,meteohub,2013-03-11 08:42:00,
2013-03-11 03:47:00,34.0,32.2,-100.00,SW,231,13.0,17.0,93,0.00,,,0.00,meteohub,2013-03-11 08:47:00,
2013-03-11 03:52:00,34.0,32.2,-100.00,SW,229,5.0,17.0,93,0.00,,,0.00,meteohub,2013-03-11 08:52:00,
2013-03-11 03:57:00,33.8,32.0,-100.00,SW,226,12.0,17.0,93,0.00,,,0.00,meteohub,2013-03-11 08:57:00,
2013-03-11 04:02:00,33.8,32.0,-100.00,WSW,248,2.0,18.0,93,0.00,,,0.00,meteohub,2013-03-11 09:02:00,
2013-03-11 04:07:00,33.8,32.0,-100.00,SW,230,7.0,18.0,93,0.00,,,0.00,meteohub,2013-03-11 09:07:00,
2013-03-11 04:12:00,33.6,31.8,-100.00,West,270,1.0,18.0,93,0.00,,,0.00,meteohub,2013-03-11 09:12:00,
2013-03-11 04:17:00,33.6,31.8,-100.00,SSW,211,4.0,16.0,93,0.00,,,0.00,meteohub,2013-03-11 09:17:00,
2013-03-11 04:22:00,33.6,31.8,-100.00,SW,228,4.0,17.0,93,0.00,,,0.00,meteohub,2013-03-11 09:22:00,
2013-03-11 04:27:00,33.6,31.8,-100.00,SW,218,8.0,17.0,93,0.00,,,0.00,meteohub,2013-03-11 09:27:00,
2013-03-11 04:32:00,33.6,31.8,-100.00,SW,232,6.0,17.0,93,0.00,,,0.00,meteohub,2013-03-11 09:32:00,
2013-03-11 04:37:00,33.6,31.8,-100.00,WSW,238,13.0,15.0,93,0.00,,,0.00,meteohub,2013-03-11 09:37:00,
2013-03-11 04:42:00,33.6,31.8,-100.00,SW,234,9.0,15.0,93,0.00,,,0.00,meteohub,2013-03-11 09:42:00,
2013-03-11 04:47:00,33.6,31.8,-100.00,SW,229,10.0,19.0,93,0.00,,,0.00,meteohub,2013-03-11 09:47:00,
2013-03-11 04:52:00,33.6,31.8,-100.00,SW,232,5.0,19.0,93,0.00,,,0.00,meteohub,2013-03-11 09:52:00,
2013-03-11 04:57:00,33.6,31.8,-100.00,WSW,240,6.0,19.0,93,0.00,,,0.00,meteohub,2013-03-11 09:57:00,
2013-03-11 05:03:00,33.6,31.5,-100.00,WSW,252,7.0,19.0,92,0.00,,,0.00,meteohub,2013-03-11 10:03:00,
2013-03-11 05:08:00,33.6,31.5,-100.00,SW,235,4.0,18.0,92,0.00,,,0.00,meteohub,2013-03-11 10:08:00,
2013-03-11 05:13:00,33.6,31.5,-100.00,SW,219,5.0,17.0,92,0.00,,,0.00,meteohub,2013-03-11 10:13:00,
2013-03-11 05:18:00,33.6,31.5,-100.00,WSW,252,5.0,16.0,92,0.00,,,0.00,meteohub,2013-03-11 10:18:00,
2013-03-11 05:23:00,33.6,31.5,-100.00,SW,235,2.0,16.0,92,0.00,,,0.00,meteohub,2013-03-11 10:23:00,
2013-03-11 05:28:00,33.6,31.5,-100.00,SW,226,12.0,16.0,92,0.00,,,0.00,meteohub,2013-03-11 10:28:00,
2013-03-11 05:33:00,33.6,31.3,-100.00,West,263,3.0,16.0,91,0.00,,,0.00,meteohub,2013-03-11 10:33:00,
2013-03-11 05:38:00,33.6,31.3,-100.00,WSW,241,6.0,17.0,91,0.00,,,0.00,meteohub,2013-03-11 10:38:00,
2013-03-11 05:43:00,33.6,31.3,-100.00,WSW,250,9.0,17.0,91,0.00,,,0.00,meteohub,2013-03-11 10:43:00,
2013-03-11 05:48:00,33.6,31.3,-100.00,WSW,244,9.0,16.0,91,0.00,,,0.00,meteohub,2013-03-11 10:48:00,
2013-03-11 05:53:00,33.6,31.3,-100.00,WSW,249,2.0,17.0,91,0.00,,,0.00,meteohub,2013-03-11 10:53:00,
2013-03-11 05:58:00,33.6,31.3,-100.00,SW,227,7.0,17.0,91,0.00,,,0.00,meteohub,2013-03-11 10:58:00,
2013-03-11 06:03:00,33.4,31.1,-100.00,WSW,240,6.0,17.0,91,0.00,,,0.00,meteohub,2013-03-11 11:03:00,
2013-03-11 06:08:00,33.4,31.1,-100.00,WSW,244,5.0,17.0,91,0.00,,,0.00,meteohub,2013-03-11 11:08:00,
2013-03-11 06:13:00,33.4,30.7,-100.00,SW,225,12.0,17.0,90,0.00,,,0.00,meteohub,2013-03-11 11:13:00,
2013-03-11 06:18:00,33.4,30.7,-100.00,SW,230,3.0,17.0,90,0.00,,,0.00,meteohub,2013-03-11 11:18:00,
2013-03-11 06:23:00,33.4,30.7,-100.00,SW,224,6.0,17.0,90,0.00,,,0.00,meteohub,2013-03-11 11:23:00,
2013-03-11 06:28:00,33.4,30.7,-100.00,WSW,248,12.0,19.0,90,0.00,,,0.00,meteohub,2013-03-11 11:28:00,
2013-03-11 06:33:00,33.4,30.7,-100.00,SW,236,19.0,19.0,90,0.00,,,0.00,meteohub,2013-03-11 11:33:00,
2013-03-11 06:38:00,33.3,30.9,-100.00,SW,221,8.0,19.0,91,0.00,,,0.00,meteohub,2013-03-11 11:38:00,
2013-03-11 06:43:00,33.3,30.9,-100.00,SW,222,6.0,19.0,91,0.00,,,0.00,meteohub,2013-03-11 11:43:00,
2013-03-11 06:48:00,33.3,30.9,-100.00,SW,236,4.0,19.0,91,0.00,,,0.00,meteohub,2013-03-11 11:48:00,
2013-03-11 06:53:00,33.3,30.9,-100.00,WSW,242,5.0,17.0,91,0.00,,,0.00,meteohub,2013-03-11 11:53:00,
2013-03-11 06:58:00,33.1,30.7,-100.00,SW,236,5.0,17.0,91,0.00,,,0.00,meteohub,2013-03-11 11:58:00,
2013-03-11 07:03:00,33.1,30.7,-100.00,SW,236,7.0,15.0,91,0.00,,,0.00,meteohub,2013-03-11 12:03:00,
2013-03-11 07:08:00,33.1,31.1,-100.00,West,272,2.0,15.0,92,0.00,,,0.00,meteohub,2013-03-11 12:08:00,
2013-03-11 07:13:00,32.9,30.6,-100.00,SW,234,2.0,16.0,91,0.00,,,0.00,meteohub,2013-03-11 12:13:00,
2013-03-11 07:18:00,32.9,30.9,-100.00,West,272,11.0,18.0,92,0.00,,,0.00,meteohub,2013-03-11 12:18:00,
2013-03-11 07:23:00,32.9,30.9,-100.00,WNW,294,11.0,18.0,92,0.00,,,0.00,meteohub,2013-03-11 12:23:00,
2013-03-11 07:28:00,32.7,30.7,-100.00,West,267,8.0,18.0,92,0.00,,,0.00,meteohub,2013-03-11 12:28:00,
2013-03-11 07:33:00,32.7,30.7,-100.00,WSW,254,13.0,20.0,92,0.00,,,0.00,meteohub,2013-03-11 12:33:00,
2013-03-11 07:38:00,32.5,30.6,-100.00,SW,229,10.0,20.0,92,0.00,,,0.00,meteohub,2013-03-11 12:38:00,
2013-03-11 07:43:00,32.5,30.6,-100.00,WSW,237,9.0,20.0,92,0.00,,,0.00,meteohub,2013-03-11 12:43:00,
2013-03-11 07:48:00,32.5,30.6,-100.00,WNW,295,7.0,18.0,92,0.00,,,0.00,meteohub,2013-03-11 12:48:00,
2013-03-11 07:53:00,32.5,30.6,-100.00,West,271,6.0,18.0,92,0.00,,,0.00,meteohub,2013-03-11 12:53:00,
2013-03-11 07:58:00,32.4,30.4,-100.00,SSW,211,2.0,18.0,92,0.00,,,0.00,meteohub,2013-03-11 12:58:00,
2013-03-11 08:03:00,32.4,30.4,-100.00,WSW,250,3.0,18.0,92,0.00,,,0.00,meteohub,2013-03-11 13:03:00,
2013-03-11 08:08:00,32.2,30.2,-100.00,WNW,296,12.0,19.0,92,0.00,,,0.00,meteohub,2013-03-11 13:08:00,
2013-03-11 08:13:00,32.2,30.2,-100.00,SW,232,5.0,20.0,92,0.00,,,0.00,meteohub,2013-03-11 13:13:00,
2013-03-11 08:18:00,32.2,30.2,-100.00,SW,234,0.0,21.0,92,0.00,,,0.00,meteohub,2013-03-11 13:18:00,
2013-03-11 08:23:00,32.4,30.4,-100.00,WSW,254,4.0,21.0,92,0.00,,,0.00,meteohub,2013-03-11 13:23:00,
2013-03-11 08:28:00,32.2,30.2,-100.00,West,276,14.0,19.0,92,0.00,,,0.00,meteohub,2013-03-11 13:28:00,
2013-03-11 08:33:00,32.2,30.2,-100.00,WSW,250,0.0,18.0,92,0.00,,,0.00,meteohub,2013-03-11 13:33:00,
2013-03-11 08:38:00,32.2,30.2,-100.00,SW,214,5.0,18.0,92,0.00,,,0.00,meteohub,2013-03-11 13:38:00,
2013-03-11 08:43:00,32.2,30.2,-100.00,West,261,5.0,18.0,92,0.00,,,0.00,meteohub,2013-03-11 13:43:00,
2013-03-11 08:48:00,32.2,30.2,-100.00,West,281,4.0,16.0,92,0.00,,,0.00,meteohub,2013-03-11 13:48:00,
2013-03-11 08:53:00,32.2,30.2,-100.00,West,260,7.0,16.0,92,0.00,,,0.00,meteohub,2013-03-11 13:53:00,
2013-03-11 08:58:00,32.2,30.2,-100.00,WSW,240,4.0,16.0,92,0.00,,,0.00,meteohub,2013-03-11 13:58:00,
2013-03-11 09:03:00,32.2,30.2,-100.00,West,260,10.0,16.0,92,0.00,,,0.00,meteohub,2013-03-11 14:03:00,
2013-03-11 09:08:00,32.2,30.2,-100.00,West,275,12.0,19.0,92,0.00,,,0.00,meteohub,2013-03-11 14:08:00,
2013-03-11 09:13:00,32.2,30.2,-100.00,West,269,11.0,19.0,92,0.00,,,0.00,meteohub,2013-03-11 14:13:00,
2013-03-11 09:18:00,32.2,30.2,-100.00,SW,227,6.0,19.0,92,0.00,,,0.00,meteohub,2013-03-11 14:18:00,
2013-03-11 09:23:00,32.2,30.2,-100.00,West,277,13.0,16.0,92,0.00,,,0.00,meteohub,2013-03-11 14:23:00,
2013-03-11 09:28:00,32.2,30.2,-100.00,WNW,283,5.0,16.0,92,0.00,,,0.00,meteohub,2013-03-11 14:28:00,
2013-03-11 09:33:00,32.2,30.2,-100.00,SSW,209,2.0,18.0,92,0.00,,,0.00,meteohub,2013-03-11 14:33:00,
2013-03-11 09:38:00,32.2,30.2,-100.00,West,276,2.0,18.0,92,0.00,,,0.00,meteohub,2013-03-11 14:38:00,
2013-03-11 09:43:00,32.2,30.2,-100.00,West,268,12.0,18.0,92,0.00,,,0.00,meteohub,2013-03-11 14:43:00,
2013-03-11 09:48:00,32.0,30.0,-100.00,WSW,244,3.0,13.0,92,0.00,,,0.00,meteohub,2013-03-11 14:48:00,
2013-03-11 09:53:00,32.0,30.0,-100.00,WSW,240,5.0,13.0,92,0.00,,,0.00,meteohub,2013-03-11 14:53:00,
2013-03-11 09:58:00,32.0,30.2,-100.00,West,265,14.0,14.0,93,0.00,,,0.00,meteohub,2013-03-11 14:58:00,
2013-03-11 10:03:00,31.8,29.8,-100.00,SSW,208,4.0,18.0,92,0.00,,,0.00,meteohub,2013-03-11 15:03:00,
2013-03-11 10:08:00,31.8,29.8,-100.00,West,267,5.0,18.0,92,0.00,,,0.00,meteohub,2013-03-11 15:08:00,
2013-03-11 10:13:00,31.8,29.8,-100.00,WNW,294,3.0,18.0,92,0.00,,,0.00,meteohub,2013-03-11 15:13:00,
2013-03-11 10:18:00,31.8,29.8,-100.00,WNW,285,8.0,19.0,92,0.00,,,0.00,meteohub,2013-03-11 15:18:00,
2013-03-11 10:23:00,31.8,29.8,-100.00,West,273,10.0,19.0,92,0.00,,,0.00,meteohub,2013-03-11 15:23:00,
2013-03-11 10:28:00,31.6,29.7,-100.00,SW,219,4.0,19.0,92,0.00,,,0.00,meteohub,2013-03-11 15:28:00,
2013-03-11 10:33:00,31.6,29.7,-100.00,WSW,251,10.0,19.0,92,0.00,,,0.00,meteohub,2013-03-11 15:33:00,
2013-03-11 10:38:00,31.6,29.7,-100.00,South,184,6.0,19.0,92,0.00,,,0.00,meteohub,2013-03-11 15:38:00,
2013-03-11 10:43:00,31.6,29.7,-100.00,West,279,4.0,19.0,92,0.00,,,0.00,meteohub,2013-03-11 15:43:00,
2013-03-11 10:48:00,31.6,29.7,-100.00,West,267,6.0,21.0,92,0.00,,,0.00,meteohub,2013-03-11 15:48:00,
2013-03-11 10:53:00,31.5,29.5,-100.00,WSW,250,5.0,21.0,92,0.00,,,0.00,meteohub,2013-03-11 15:53:00,
2013-03-11 10:58:00,31.6,29.7,-100.00,WNW,292,4.0,20.0,92,0.00,,,0.00,meteohub,2013-03-11 15:58:00,
2013-03-11 11:03:00,31.6,29.3,-100.00,SW,222,3.0,20.0,91,0.00,,,0.00,meteohub,2013-03-11 16:03:00,
2013-03-11 11:08:00,31.6,29.3,-100.00,WNW,284,6.0,20.0,91,0.00,,,0.00,meteohub,2013-03-11 16:08:00,
2013-03-11 11:13:00,31.6,29.3,-100.00,West,277,5.0,18.0,91,0.00,,,0.00,meteohub,2013-03-11 16:13:00,
2013-03-11 11:18:00,31.6,29.3,-100.00,WNW,288,6.0,15.0,91,0.00,,,0.00,meteohub,2013-03-11 16:18:00,
2013-03-11 11:23:00,31.8,29.5,-100.00,West,275,4.0,15.0,91,0.00,,,0.00,meteohub,2013-03-11 16:23:00,
2013-03-11 11:28:00,31.8,29.5,-100.00,WSW,238,4.0,16.0,91,0.00,,,0.00,meteohub,2013-03-11 16:28:00,
2013-03-11 11:33:00,31.8,29.5,-100.00,WNW,282,13.0,16.0,91,0.00,,,0.00,meteohub,2013-03-11 16:33:00,
2013-03-11 11:38:00,31.6,29.3,-100.00,WSW,249,8.0,18.0,91,0.00,,,0.00,meteohub,2013-03-11 16:38:00,
2013-03-11 11:43:00,31.6,29.3,-100.00,WNW,292,14.0,18.0,91,0.00,,,0.00,meteohub,2013-03-11 16:43:00,
2013-03-11 11:48:00,31.8,29.5,-100.00,SSE,163,2.0,21.0,91,0.00,,,0.00,meteohub,2013-03-11 16:48:00,
2013-03-11 11:53:00,31.8,29.5,-100.00,West,269,6.0,21.0,91,0.00,,,0.00,meteohub,2013-03-11 16:53:00,
2013-03-11 11:58:00,31.8,29.3,-100.00,WNW,302,16.0,18.0,90,0.00,,,0.00,meteohub,2013-03-11 16:58:00,
2013-03-11 12:03:00,31.8,29.3,-100.00,WNW,282,7.0,18.0,90,0.00,,,0.00,meteohub,2013-03-11 17:03:00,
2013-03-11 12:08:00,31.8,29.3,-100.00,West,269,3.0,19.0,90,0.00,,,0.00,meteohub,2013-03-11 17:08:00,
2013-03-11 12:13:00,31.8,29.3,-100.00,WNW,293,9.0,21.0,90,0.00,,,0.00,meteohub,2013-03-11 17:13:00,
2013-03-11 12:18:00,31.6,29.1,-100.00,WSW,240,3.0,21.0,90,0.00,,,0.00,meteohub,2013-03-11 17:18:00,
2013-03-11 12:23:00,31.8,29.3,-100.00,WSW,244,9.0,21.0,90,0.00,,,0.00,meteohub,2013-03-11 17:23:00,
2013-03-11 12:29:00,31.8,29.3,-100.00,West,259,10.0,21.0,90,0.00,,,0.00,meteohub,2013-03-11 17:29:00,
2013-03-11 12:34:00,31.8,29.3,-100.00,WNW,287,10.0,21.0,90,0.00,,,0.00,meteohub,2013-03-11 17:34:00,
2013-03-11 12:39:00,31.8,29.3,-100.00,West,265,6.0,20.0,90,0.00,,,0.00,meteohub,2013-03-11 17:39:00,
2013-03-11 12:44:00,31.8,29.3,-100.00,WSW,256,1.0,18.0,90,0.00,,,0.00,meteohub,2013-03-11 17:44:00,
2013-03-11 12:49:00,31.8,29.3,-100.00,West,272,10.0,18.0,90,0.00,,,0.00,meteohub,2013-03-11 17:49:00,
2013-03-11 12:54:00,31.6,29.1,-100.00,WNW,300,7.0,18.0,90,0.00,,,0.00,meteohub,2013-03-11 17:54:00,
2013-03-11 12:59:00,31.6,29.1,-100.00,WNW,290,11.0,19.0,90,0.00,,,0.00,meteohub,2013-03-11 17:59:00,
2013-03-11 13:04:00,31.8,29.3,-100.00,WNW,290,11.0,19.0,90,0.00,,,0.00,meteohub,2013-03-11 18:04:00,
2013-03-11 13:09:00,31.8,29.3,-100.00,NW,306,14.0,19.0,90,0.00,,,0.00,meteohub,2013-03-11 18:09:00,
2013-03-11 13:14:00,31.8,28.9,-100.00,West,265,11.0,19.0,89,0.00,,,0.00,meteohub,2013-03-11 18:14:00,
2013-03-11 13:19:00,32.2,29.3,-100.00,WSW,254,21.0,21.0,89,0.00,,,0.00,meteohub,2013-03-11 18:19:00,
2013-03-11 13:24:00,32.2,29.3,-100.00,WNW,286,16.0,20.0,89,0.00,,,0.00,meteohub,2013-03-11 18:24:00,
2013-03-11 13:29:00,32.4,29.1,-100.00,West,280,19.0,22.0,88,0.00,,,0.00,meteohub,2013-03-11 18:29:00,
2013-03-11 13:34:00,32.4,29.1,-100.00,West,281,2.0,22.0,88,0.00,,,0.00,meteohub,2013-03-11 18:34:00,
2013-03-11 13:39:00,32.7,29.5,-100.00,West,267,5.0,22.0,88,0.00,,,0.00,meteohub,2013-03-11 18:39:00,
2013-03-11 13:44:00,32.9,29.7,-100.00,West,281,17.0,22.0,88,0.00,,,0.00,meteohub,2013-03-11 18:44:00,
2013-03-11 13:49:00,32.7,28.9,-100.00,West,267,12.0,21.0,86,0.00,,,0.00,meteohub,2013-03-11 18:49:00,
2013-03-11 13:54:00,33.1,29.3,-100.00,WNW,286,6.0,25.0,86,0.00,,,0.00,meteohub,2013-03-11 18:54:00,
2013-03-11 13:59:00,33.3,29.3,-100.00,WNW,302,12.0,25.0,85,0.00,,,0.00,meteohub,2013-03-11 18:59:00,
2013-03-11 14:04:00,33.4,29.5,-100.00,West,274,8.0,25.0,85,0.00,,,0.00,meteohub,2013-03-11 19:04:00,
2013-03-11 14:09:00,33.4,29.1,-100.00,WNW,283,14.0,23.0,84,0.00,,,0.00,meteohub,2013-03-11 19:09:00,
2013-03-11 14:14:00,33.4,28.8,-100.00,West,270,12.0,23.0,83,0.00,,,0.00,meteohub,2013-03-11 19:14:00,
2013-03-11 14:47:00,34.0,28.8,-100.00,West,270,31.0,31.0,81,0.00,,,0.00,meteohub,2013-03-11 19:47:00,
2013-03-11 14:52:00,34.0,29.1,-100.00,WNW,302,13.0,-999.0,82,0.00,,,0.00,meteohub,2013-03-11 19:52:00,
2013-03-11 14:57:00,34.2,28.9,-100.00,West,277,12.0,31.0,81,0.00,,,0.00,meteohub,2013-03-11 19:57:00,
2013-03-11 15:02:00,34.3,29.1,-100.00,WNW,284,7.0,25.0,81,0.00,,,0.00,meteohub,2013-03-11 20:02:00,
2013-03-11 15:07:00,34.5,28.9,-100.00,SW,232,9.0,25.0,80,0.00,,,0.00,meteohub,2013-03-11 20:07:00,
2013-03-11 15:13:00,35.1,29.5,-100.00,WNW,282,13.0,25.0,80,0.00,,,0.00,meteohub,2013-03-11 20:13:00,
2013-03-11 15:18:00,35.4,29.5,-100.00,WNW,286,15.0,23.0,79,0.00,,,0.00,meteohub,2013-03-11 20:18:00,
2013-03-11 15:22:00,35.4,29.3,-100.00,West,275,12.0,21.0,78,0.00,,,0.00,meteohub,2013-03-11 20:22:00,
2013-03-11 15:27:00,35.2,29.1,-100.00,West,259,17.0,23.0,78,0.00,,,0.00,meteohub,2013-03-11 20:27:00,
2013-03-11 15:32:00,35.1,28.9,-100.00,West,279,11.0,23.0,78,0.00,,,0.00,meteohub,2013-03-11 20:32:00,
2013-03-11 15:37:00,35.1,28.9,-100.00,WNW,295,18.0,29.0,78,0.00,,,0.00,meteohub,2013-03-11 20:37:00,
2013-03-11 15:42:00,35.1,29.1,-100.00,West,267,15.0,29.0,79,0.00,,,0.00,meteohub,2013-03-11 20:42:00,
2013-03-11 15:48:00,34.9,28.8,-100.00,West,269,11.0,23.0,78,0.00,,,0.00,meteohub,2013-03-11 20:48:00,
2013-03-11 15:53:00,34.7,28.6,-100.00,West,271,16.0,22.0,78,0.00,,,0.00,meteohub,2013-03-11 20:53:00,
2013-03-11 15:58:00,34.9,29.1,-100.00,West,259,9.0,23.0,79,0.00,,,0.00,meteohub,2013-03-11 20:58:00,
2013-03-11 16:03:00,34.9,29.1,-100.00,NW,304,16.0,23.0,79,0.00,,,0.00,meteohub,2013-03-11 21:03:00,
2013-03-11 16:08:00,35.1,28.9,-100.00,North,0,9.0,23.0,78,0.00,,,0.00,meteohub,2013-03-11 21:08:00,
2013-03-11 16:13:00,34.9,28.8,-100.00,West,259,13.0,20.0,78,0.00,,,0.00,meteohub,2013-03-11 21:13:00,
2013-03-11 16:18:00,34.7,28.9,-100.00,NW,304,15.0,21.0,79,0.00,,,0.00,meteohub,2013-03-11 21:18:00,
2013-03-11 16:23:00,34.7,28.9,-100.00,West,267,13.0,22.0,79,0.00,,,0.00,meteohub,2013-03-11 21:23:00,
2013-03-11 16:28:00,34.9,28.8,-100.00,WNW,288,13.0,22.0,78,0.00,,,0.00,meteohub,2013-03-11 21:28:00,
2013-03-11 16:33:00,34.9,28.8,-100.00,West,260,6.0,18.0,78,0.00,,,0.00,meteohub,2013-03-11 21:33:00,
2013-03-11 16:38:00,35.1,28.9,-100.00,WSW,250,4.0,18.0,78,0.00,,,0.00,meteohub,2013-03-11 21:38:00,
2013-03-11 16:43:00,35.2,29.1,-100.00,West,277,12.0,20.0,78,0.00,,,0.00,meteohub,2013-03-11 21:43:00,
2013-03-11 16:48:00,35.1,28.6,-100.00,WSW,250,13.0,20.0,77,0.00,,,0.00,meteohub,2013-03-11 21:48:00,
2013-03-11 16:53:00,35.1,28.6,-100.00,WNW,298,11.0,23.0,77,0.00,,,0.00,meteohub,2013-03-11 21:53:00,
2013-03-11 16:58:00,35.1,28.6,-100.00,West,281,9.0,23.0,77,0.00,,,0.00,meteohub,2013-03-11 21:58:00,
2013-03-11 17:03:00,35.1,28.6,-100.00,WSW,258,3.0,23.0,77,0.00,,,0.00,meteohub,2013-03-11 22:03:00,
2013-03-11 17:08:00,34.9,28.4,-100.00,WNW,300,13.0,18.0,77,0.00,,,0.00,meteohub,2013-03-11 22:08:00,
2013-03-11 17:13:00,34.5,28.0,-100.00,WNW,286,15.0,20.0,77,0.00,,,0.00,meteohub,2013-03-11 22:13:00,
2013-03-11 17:18:00,34.3,28.2,-100.00,WNW,290,15.0,23.0,78,0.00,,,0.00,meteohub,2013-03-11 22:18:00,
2013-03-11 17:23:00,34.3,28.2,-100.00,WNW,282,10.0,23.0,78,0.00,,,0.00,meteohub,2013-03-11 22:23:00,
2013-03-11 17:28:00,34.3,28.2,-100.00,West,274,14.0,23.0,78,0.00,,,0.00,meteohub,2013-03-11 22:28:00,
2013-03-11 17:33:00,34.3,28.2,-100.00,WNW,291,14.0,20.0,78,0.00,,,0.00,meteohub,2013-03-11 22:33:00,
2013-03-11 17:38:00,34.3,28.2,-100.00,WSW,256,13.0,21.0,78,0.00,,,0.00,meteohub,2013-03-11 22:38:00,
2013-03-11 17:43:00,34.3,28.2,-100.00,West,277,7.0,21.0,78,0.00,,,0.00,meteohub,2013-03-11 22:43:00,
2013-03-11 17:48:00,34.3,28.2,-100.00,West,277,8.0,21.0,78,0.00,,,0.00,meteohub,2013-03-11 22:48:00,
2013-03-11 17:53:00,34.3,28.2,-100.00,WNW,286,10.0,23.0,78,0.00,,,0.00,meteohub,2013-03-11 22:53:00,
2013-03-11 17:58:00,34.2,28.0,-100.00,WNW,284,5.0,23.0,78,0.00,,,0.00,meteohub,2013-03-11 22:58:00,
2013-03-11 18:03:00,34.2,28.0,-100.00,West,260,10.0,23.0,78,0.00,,,0.00,meteohub,2013-03-11 23:03:00,
2013-03-11 18:08:00,34.2,28.0,-100.00,West,279,15.0,17.0,78,0.00,,,0.00,meteohub,2013-03-11 23:08:00,
2013-03-11 18:13:00,34.0,27.9,-100.00,WSW,246,3.0,17.0,78,0.00,,,0.00,meteohub,2013-03-11 23:13:00,
2013-03-11 18:18:00,34.0,27.9,-100.00,WSW,238,4.0,18.0,78,0.00,,,0.00,meteohub,2013-03-11 23:18:00,
2013-03-11 18:23:00,34.0,27.9,-100.00,West,267,11.0,18.0,78,0.00,,,0.00,meteohub,2013-03-11 23:23:00,
2013-03-11 18:28:00,34.0,27.9,-100.00,West,279,9.0,18.0,78,0.00,,,0.00,meteohub,2013-03-11 23:28:00,
2013-03-11 18:33:00,34.0,28.2,-100.00,WSW,250,2.0,16.0,79,0.00,,,0.00,meteohub,2013-03-11 23:33:00,
2013-03-11 18:38:00,34.0,28.4,-100.00,West,265,11.0,16.0,80,0.00,,,0.00,meteohub,2013-03-11 23:38:00,
2013-03-11 18:43:00,34.0,28.4,-100.00,WNW,290,12.0,15.0,80,0.00,,,0.00,meteohub,2013-03-11 23:43:00,
2013-03-11 18:48:00,34.0,28.2,-100.00,West,273,12.0,15.0,79,0.00,,,0.00,meteohub,2013-03-11 23:48:00,
2013-03-11 18:53:00,34.0,28.2,-100.00,West,277,3.0,15.0,79,0.00,,,0.00,meteohub,2013-03-11 23:53:00,
2013-03-11 18:58:00,33.8,28.0,-100.00,West,273,7.0,16.0,79,0.00,,,0.00,meteohub,2013-03-11 23:58:00,
2013-03-11 19:03:00,33.8,28.0,-100.00,WSW,254,3.0,16.0,79,0.00,,,0.00,meteohub,2013-03-12 00:03:00,
2013-03-11 19:08:00,33.8,27.7,-100.00,West,271,6.0,16.0,78,0.00,,,0.00,meteohub,2013-03-12 00:08:00,
2013-03-11 19:13:00,33.8,28.0,-100.00,West,264,0.0,14.0,79,0.00,,,0.00,meteohub,2013-03-12 00:13:00,
2013-03-11 19:18:00,33.8,27.7,-100.00,WSW,247,8.0,15.0,78,0.00,,,0.00,meteohub,2013-03-12 00:18:00,
2013-03-11 19:23:00,33.6,27.5,-100.00,SW,229,5.0,19.0,78,0.00,,,0.00,meteohub,2013-03-12 00:23:00,
2013-03-11 19:28:00,33.6,27.1,-100.00,WNW,283,10.0,19.0,77,0.00,,,0.00,meteohub,2013-03-12 00:28:00,
2013-03-11 19:33:00,33.6,27.1,-100.00,West,273,14.0,19.0,77,0.00,,,0.00,meteohub,2013-03-12 00:33:00,
2013-03-11 19:38:00,33.4,27.0,-100.00,WSW,258,12.0,15.0,77,0.00,,,0.00,meteohub,2013-03-12 00:38:00,
2013-03-11 19:43:00,33.4,27.0,-100.00,West,265,13.0,16.0,77,0.00,,,0.00,meteohub,2013-03-12 00:43:00,
2013-03-11 19:48:00,33.4,26.8,-100.00,WNW,294,6.0,20.0,76,0.00,,,0.00,meteohub,2013-03-12 00:48:00,
2013-03-11 19:53:00,33.3,26.6,-100.00,WSW,252,7.0,20.0,76,0.00,,,0.00,meteohub,2013-03-12 00:53:00,
2013-03-11 19:58:00,33.3,26.2,-100.00,WNW,287,13.0,22.0,75,0.00,,,0.00,meteohub,2013-03-12 00:58:00,
2013-03-11 20:03:00,33.3,25.9,-100.00,WNW,284,6.0,22.0,74,0.00,,,0.00,meteohub,2013-03-12 01:03:00,
2013-03-11 20:08:00,33.3,25.9,-100.00,West,274,7.0,23.0,74,0.00,,,0.00,meteohub,2013-03-12 01:08:00,
2013-03-11 20:13:00,33.3,25.9,-100.00,WSW,252,1.0,23.0,74,0.00,,,0.00,meteohub,2013-03-12 01:13:00,
2013-03-11 20:18:00,33.1,26.1,-100.00,West,259,10.0,23.0,75,0.00,,,0.00,meteohub,2013-03-12 01:18:00,
2013-03-11 20:23:00,33.1,26.1,-100.00,West,265,11.0,16.0,75,0.00,,,0.00,meteohub,2013-03-12 01:23:00,
2013-03-11 20:28:00,33.1,26.4,-100.00,WSW,249,4.0,18.0,76,0.00,,,0.00,meteohub,2013-03-12 01:28:00,
2013-03-11 20:33:00,32.9,25.9,-100.00,West,272,10.0,18.0,75,0.00,,,0.00,meteohub,2013-03-12 01:33:00,
2013-03-11 20:38:00,32.9,26.2,-100.00,West,262,9.0,18.0,76,0.00,,,0.00,meteohub,2013-03-12 01:38:00,
2013-03-11 20:43:00,32.9,26.2,-100.00,West,270,6.0,16.0,76,0.00,,,0.00,meteohub,2013-03-12 01:43:00,
2013-03-11 20:48:00,32.9,25.9,-100.00,West,273,4.0,14.0,75,0.00,,,0.00,meteohub,2013-03-12 01:48:00,
2013-03-11 20:53:00,32.9,25.9,-100.00,West,267,9.0,14.0,75,0.00,,,0.00,meteohub,2013-03-12 01:53:00,
2013-03-11 20:58:00,32.7,25.7,-100.00,WSW,248,6.0,20.0,75,0.00,,,0.00,meteohub,2013-03-12 01:58:00,
2013-03-11 21:03:00,32.7,25.3,-100.00,West,268,2.0,20.0,74,0.00,,,0.00,meteohub,2013-03-12 02:03:00,
2013-03-11 21:08:00,32.7,25.3,-100.00,WSW,258,4.0,20.0,74,0.00,,,0.00,meteohub,2013-03-12 02:08:00,
2013-03-11 21:13:00,32.7,25.0,-100.00,WNW,300,7.0,14.0,73,0.00,,,0.00,meteohub,2013-03-12 02:13:00,
2013-03-11 21:18:00,32.7,25.0,-100.00,WNW,301,12.0,15.0,73,0.00,,,0.00,meteohub,2013-03-12 02:18:00,
2013-03-11 21:23:00,32.7,25.0,-100.00,WNW,283,9.0,18.0,73,0.00,,,0.00,meteohub,2013-03-12 02:23:00,
2013-03-11 21:28:00,32.7,25.0,-100.00,WNW,291,7.0,18.0,73,0.00,,,0.00,meteohub,2013-03-12 02:28:00,
2013-03-11 21:33:00,32.7,25.0,-100.00,West,275,7.0,17.0,73,0.00,,,0.00,meteohub,2013-03-12 02:33:00,
2013-03-11 21:39:00,32.7,25.0,-100.00,WNW,282,5.0,17.0,73,0.00,,,0.00,meteohub,2013-03-12 02:39:00,
2013-03-11 21:44:00,32.7,25.0,-100.00,WNW,300,11.0,17.0,73,0.00,,,0.00,meteohub,2013-03-12 02:44:00,
2013-03-11 21:49:00,32.7,25.3,-100.00,West,276,6.0,17.0,74,0.00,,,0.00,meteohub,2013-03-12 02:49:00,
2013-03-11 21:54:00,32.7,25.3,-100.00,WSW,249,5.0,15.0,74,0.00,,,0.00,meteohub,2013-03-12 02:54:00,
2013-03-11 21:59:00,32.5,24.4,-100.00,WNW,290,7.0,16.0,72,0.00,,,0.00,meteohub,2013-03-12 02:59:00,
2013-03-11 22:04:00,32.5,24.4,-100.00,West,260,10.0,19.0,72,0.00,,,0.00,meteohub,2013-03-12 03:04:00,
2013-03-11 22:09:00,32.4,24.3,-100.00,West,275,5.0,19.0,72,0.00,,,0.00,meteohub,2013-03-12 03:09:00,
2013-03-11 22:14:00,32.4,24.3,-100.00,West,276,4.0,19.0,72,0.00,,,0.00,meteohub,2013-03-12 03:14:00,
2013-03-11 22:19:00,32.4,24.3,-100.00,West,272,6.0,15.0,72,0.00,,,0.00,meteohub,2013-03-12 03:19:00,
2013-03-11 22:24:00,32.4,24.3,-100.00,WSW,256,3.0,14.0,72,0.00,,,0.00,meteohub,2013-03-12 03:24:00,
2013-03-11 22:29:00,32.4,24.3,-100.00,West,262,2.0,13.0,72,0.00,,,0.00,meteohub,2013-03-12 03:29:00,
2013-03-11 22:34:00,32.4,24.3,-100.00,West,276,2.0,13.0,72,0.00,,,0.00,meteohub,2013-03-12 03:34:00,
2013-03-11 22:39:00,32.2,24.4,-100.00,West,268,2.0,11.0,73,0.00,,,0.00,meteohub,2013-03-12 03:39:00,
2013-03-11 22:44:00,32.2,24.4,-100.00,West,267,4.0,11.0,73,0.00,,,0.00,meteohub,2013-03-12 03:44:00,
2013-03-11 22:49:00,32.2,24.4,-100.00,West,271,4.0,11.0,73,0.00,,,0.00,meteohub,2013-03-12 03:49:00,
2013-03-11 22:54:00,32.2,24.8,-100.00,West,261,3.0,10.0,74,0.00,,,0.00,meteohub,2013-03-12 03:54:00,
2013-03-11 22:59:00,31.8,24.8,-100.00,WSW,257,3.0,10.0,75,0.00,,,0.00,meteohub,2013-03-12 03:59:00,
2013-03-11 23:00:00,31.8,24.8,-100.00,West,261,4.0,10.0,75,0.00,,,0.00,meteohub,2013-03-12 04:00:00,
2013-03-11 23:05:00,31.8,25.2,-100.00,WSW,254,1.0,12.0,76,0.00,,,0.00,meteohub,2013-03-12 04:05:00,
2013-03-11 23:10:00,31.8,25.2,-100.00,WNW,283,4.0,12.0,76,0.00,,,0.00,meteohub,2013-03-12 04:10:00,
2013-03-11 23:15:00,31.8,24.8,-100.00,WNW,292,0.0,12.0,75,0.00,,,0.00,meteohub,2013-03-12 04:15:00,
2013-03-11 23:16:00,31.8,24.8,-100.00,West,270,5.0,12.0,75,0.00,,,0.00,meteohub,2013-03-12 04:16:00,
2013-03-11 23:21:00,31.6,25.0,-100.00,WSW,252,6.0,12.0,76,0.00,,,0.00,meteohub,2013-03-12 04:21:00,
2013-03-11 23:26:00,31.5,24.8,-100.00,West,259,7.0,12.0,76,0.00,,,0.00,meteohub,2013-03-12 04:26:00,
2013-03-11 23:31:00,31.3,24.6,-100.00,West,263,3.0,12.0,76,0.00,,,0.00,meteohub,2013-03-12 04:31:00,
2013-03-11 23:36:00,30.9,24.6,-100.00,West,262,3.0,11.0,77,0.00,,,0.00,meteohub,2013-03-12 04:36:00,
2013-03-11 23:41:00,30.7,24.6,-100.00,WSW,253,4.0,10.0,78,0.00,,,0.00,meteohub,2013-03-12 04:41:00,
2013-03-11 23:46:00,30.6,24.8,-100.00,WNW,289,2.0,11.0,79,0.00,,,0.00,meteohub,2013-03-12 04:46:00,
2013-03-11 23:51:00,30.6,24.4,-100.00,West,279,5.0,14.0,78,0.00,,,0.00,meteohub,2013-03-12 04:51:00,
2013-03-11 23:56:00,30.6,24.4,-100.00,WNW,288,6.0,14.0,78,0.00,,,0.00,meteohub,2013-03-12 04:56:00,